Home > Weather > Sharjah > Past weeks

Flag for United Arab Emirates Weather for the Past 2 Weeks in Sharjah, Sharjah, United Arab Emirates

Now
77 °F

Sunny.


Feels Like: 78 °F
Forecast: 60 / 78 °F
Wind: 2 mph from Northwest

Location: Sharjah International Airport

Current Time: Feb 7, 2016 at 1:21:33 PM

Latest Report: Feb 7, 2016 at 1:00 PM


Visibility: 10 mi

Pressure: 30.07 "Hg

Humidity: 34%

Dew point: 46 °F

Location of SharjahLocation

Historic Weather in Sharjah — Graph

°F

Sharjah Temperature Yesterday

Maximum temperature yesterday: 77 °F (at 1:00 PM)
Minimum temperature yesterday: 50 °F (at 4:00 AM)
Average temperature yesterday: 63 °F

High & Low Weather Summary for the Past Weeks

 TemperatureHumidityPressure
High91 °F (Feb 5, 5:00 PM)100% (Jan 24, 6:00 AM)30.27 "Hg (Jan 24, 6:00 AM)
Low50 °F (Feb 6, 4:00 AM)16% (Feb 5, 5:00 PM)29.92 "Hg (Jan 25, 4:00 PM)
Average66 °F58%30.09 "Hg
* Reported Jan 23 12:00 Noon — Feb 7 12:00 Noon, Sharjah, Weather by CustomWeather, © 2016

Note: Actual official high and low records may vary slightly from our data, if they occured in-between our weather recording intervals... More about our weather records

Advertising

Sharjah Weather History for the Previous 24 Hours

 ConditionsComfort  
Time TempWeatherWind HumidityBarometerVisibility
12:00 PM
Sun, Feb 7
73 °FSunny.No wind38%30.09 "Hg10 mi
11:00 AM70 °FSunny.5 mph57%30.12 "Hg10 mi
10:00 AM66 °FSunny.5 mph64%30.12 "Hg10 mi
9:00 AM61 °FSunny.6 mph72%30.09 "Hg10 mi
8:00 AM57 °FSunny.5 mph77%30.09 "Hg10 mi
7:00 AM50 °FSunny.6 mph88%30.07 "Hg10 mi
6:00 AM50 °FClear.5 mph94%30.04 "Hg10 mi
4:00 AM52 °FClear.3 mph88%30.04 "Hg10 mi
3:00 AM54 °FClear.3 mph82%30.04 "Hg10 mi
2:00 AM54 °FClear.5 mph82%30.04 "Hg10 mi
1:00 AM55 °FClear.5 mph82%30.04 "Hg10 mi
12:00 AM59 °FClear.3 mph72%30.04 "Hg10 mi
11:00 PM
Sat, Feb 6
59 °FClear.2 mph72%30.07 "Hg10 mi
10:00 PM59 °FClear.2 mph72%30.07 "Hg10 mi
9:00 PM63 °FClear.1 mph68%30.07 "Hg10 mi
8:00 PM68 °FClear.5 mph64%30.04 "Hg10 mi
7:00 PM70 °FClear.3 mph60%30.04 "Hg10 mi
6:00 PM72 °FSunny.8 mph53%30.04 "Hg10 mi
5:00 PM73 °FSunny.12 mph44%30.04 "Hg10 mi
4:00 PM75 °FSunny.9 mph34%30.04 "Hg10 mi
3:00 PM75 °FSunny.10 mph29%30.04 "Hg10 mi
2:00 PM77 °FSunny.10 mph30%30.07 "Hg10 mi
1:00 PM77 °FSunny.2 mph34%30.09 "Hg10 mi
Weather by CustomWeather, © 2016

See weather overviewHow to use our weather pages